Regional Weather Roundup
Issued by NWS

Home | Current Version | Previous Version | Graphics & Text | Print | Product List | Glossary On
Versions: 1 2 3 4 5 6 7 8 9 10 11 12 13 14 15 16 17 18 19 20 21 22 23 24 25 26 27 28 29 30 31 32 33 34 35 36 37 38 39 40 41 42 43 44 45 46 47 48 49 50
000
ASUS43 KOAX 031102
RWRNE

WEATHER ROUNDUP FOR NEBRASKA
NATIONAL WEATHER SERVICE OMAHA NE
500 AM CST SAT DEC 03 2016

NOTES: SATELLITE DATA IS BEING USED TO AUGMENT CLOUD COVER ABOVE
       12000 FEET.
       "FAIR" INDICATES FEW OR NO CLOUDS BELOW 12,000 FEET WITH NO
       SIGNIFICANT WEATHER AND/OR OBSTRUCTIONS TO VISIBILITY.

  * THESE STATIONS DO NOT REPORT WEATHER SUCH AS RAIN...SNOW OR FOG.

NEZ001>004-019>022-054>056-031200-
NEBRASKA PANHANDLE

CITY           SKY/WX    TMP DP  RH WIND       PRES   REMARKS
SCOTTSBLUFF    CLOUDY    27  21  78 W5        30.07F WCI  22
ALLIANCE       CLOUDY    27  22  81 S7        30.05F WCI  19
CHADRON        CLOUDY    32  23  69 SW14      30.02F WCI  22
KIMBALL        CLOUDY    22  20  91 SW8       30.06F WCI  13
SIDNEY         CLEAR     24  19  81 SW12      30.08F WCI  13
$$

NEZ057>060-069>072-079>082-031200-
SOUTHWEST NEBRASKA

CITY           SKY/WX    TMP DP  RH WIND       PRES   REMARKS
NORTH PLATTE   CLOUDY    31  24  75 S6        30.16F WCI  25
IMPERIAL       PTCLDY    29  24  82 S8        30.14F WCI  21
MCCOOK         CLOUDY    23  19  85 SE8       30.20F WCI  14
OGALLALA       CLOUDY    31  24  75 CALM      30.13F
$$

NEZ005>010-023>029-035>040-094-031200-
NORTH CENTRAL NEBRASKA

CITY           SKY/WX    TMP DP  RH WIND       PRES   REMARKS
VALENTINE      CLOUDY    26  22  84 CALM      30.12F
AINSWORTH      CLOUDY    31  27  83 S13       30.14F WCI  21
BROKEN BOW     CLOUDY    31  27  85 S7        30.18F WCI  24
O`NEILL        CLOUDY    26  24  91 S6        30.19F WCI  19
ORD            CLOUDY    27  22  81 E5        30.20  WCI  22
THEDFORD       CLOUDY    33  26  72 S9        30.14F WCI  26
$$

NEZ041-046>049-061>064-073>077-083>087-031200-
SOUTH CENTRAL NEBRASKA

CITY           SKY/WX    TMP DP  RH WIND       PRES   REMARKS
GRAND ISLAND   CLOUDY    28  26  92 S5        30.24  WCI  23
HASTINGS       CLOUDY    27  23  85 CALM      30.24
HEBRON         MOCLDY    24  22  91 CALM      30.27F
HOLDREGE       PTCLDY    27  25  89 S5        30.21F WCI  22
KEARNEY *      CLOUDY    28  21  74 CALM      30.22F
$$

NEZ011>018-030>034-042>045-031200-
NORTHEAST NEBRASKA

CITY           SKY/WX    TMP DP  RH WIND       PRES   REMARKS
NORFOLK        PTCLDY    19  17  92 NE3       30.26F
ALBION         CLOUDY    26  23  89 SE3       30.25F
FREMONT        PTCLDY    23  23  98 CALM      30.31S
TEKAMAH        PTCLDY    23  20  88 S3        30.33
WAYNE          PTCLDY    19  17  93 S5        30.28F WCI  12
$$

NEZ050>053-065>068-078-088>093-031200-
SOUTHEAST NEBRASKA

CITY           SKY/WX    TMP DP  RH WIND       PRES   REMARKS
LINCOLN        PTCLDY    24  21  88 CALM      30.31F
OMAHA EPPLEY   PTCLDY    24  19  81 CALM      30.33F
FALLS CITY       N/A    N/A N/A N/A MISG      30.31F
PLATTSMOUTH    CLEAR     27  24  88 CALM      30.31F
$$

NEZ044-045-051>053-067-031200-
OMAHA AREA

CITY           SKY/WX    TMP DP  RH WIND       PRES   REMARKS
OMAHA EPPLEY   PTCLDY    24  19  81 CALM      30.33F
FREMONT        PTCLDY    23  23  98 CALM      30.31S
MILLARD        PTCLDY    25  24  94 CALM      30.32F
OFFUTT AFB     MOCLDY    20  20  98 CALM      30.31F
PLATTSMOUTH    CLEAR     27  24  88 CALM      30.31F
WAHOO          CLOUDY    22  20  92 NE3       30.30F
$$



USA.gov is the U.S. government's official web portal to all federal, state and local government web resources and services.